[[{"header":{"parameterUnit":"m.s-1","parameterCategory":1,"la1":30.2991,"la2":30.254,"lo1":-89.0895,"lo2":-89.0444,"dy":0.0017,"dx":0.0017,"nx":28,"ny":28,"refTime":"2025-08-08T03:00:00:Z","depth":0,"parameterNumber":2,"parameterNumberName":"U-component_of_WINDS"},"data":[0,0,0,0,0,0,0,0,0,0,0,0,0,0,0,0,0,0,0,0,0,0,0,0,0,0,0,0,0,0,0,0,0,0,0,0,0,0,0,0,0,0,0,0,0,0,0,0,0,0,0,0,0,0,0,0,0,0,-2.0091,-2.0091,0,-2.0091,-2.0091,-2.0091,-2.002,-2.0018,-2.0016,-2.0015,-2.0014,-2.0016,-2.0018,0,0,0,0,0,0,0,0,0,0,0,0,0,-2.0029,-2.0031,-2.0091,-2.0091,-2.0091,-2.0091,-2.0091,-2.0091,-2.002,-2.0018,-2.0016,-2.0014,-2.0014,-2.0016,-2.0018,0,0,0,0,0,0,0,0,0,0,0,0,0,-2.0045,-2.0031,-2.0091,-2.0056,-2.0053,-2.0091,-2.0091,-2.0091,-2.0021,-2.0018,-2.0015,-2.0013,-2.0013,-2.0015,-2.0018,-2.009,0,0,-2.0026,-2.0027,0,0,0,0,0,0,0,0,-2.0045,-2.0048,-2.0061,-2.0058,-2.0055,-2.0053,-2.0069,-2.009,-2.0022,-2.0033,-2.0015,-2.0011,-2.0029,-2.003,-2.0036,-2.0089,-2.0089,-2.0026,-2.0028,-2.0029,-2.0029,0,0,0,0,0,0,0,-2.0044,-2.0047,-2.0091,-2.0061,-2.0057,-2.004,-2.0039,-2.0073,-2.0047,-2.0032,-2.0027,-2.0028,-2.0027,-2.0034,-2.0036,-2.0089,-2.0026,-2.0028,-2.003,-2.0031,-2.0201,-2.0204,0,0,0,0,0,0,-2.0047,-2.0047,-2.0091,-2.0091,-2.0043,-2.0043,-2.0042,-2.0056,-2.0046,-2.0042,-2.003,-2.0024,-2.0031,-2.0033,-2.0036,-2.0118,-2.0029,-2.0031,-2.0033,-2.0198,-2.0201,-2.0205,0,0,0,0,0,0,-2.0046,-2.0052,-2.0091,-2.0067,-2.0071,-2.0047,-2.0063,-2.0058,-2.0064,-2.0045,-2.004,-2.0042,-2.0029,-2.0032,-2.0077,-2.0117,-2.0032,-2.0035,-2.0194,-2.0199,-2.0203,-2.0285,0,0,0,0,0,0,-2.0045,-2.0052,-2.0079,-2.0069,-2.0073,-2.0132,-2.0066,-2.006,-2.0069,-2.0062,-2.0055,-2.0051,-2.0027,-2.0073,-2.0079,-2.0119,-2.0037,-2.0191,-2.0196,-2.0202,-2.0278,-2.0291,-2.0303,0,0,0,0,0,-2.0043,-2.0102,-2.0081,-2.0087,-2.0106,-2.0135,-2.0137,-2.0108,-2.0073,-2.01,-2.0087,-2.0051,-2.0112,-2.0078,-2.0084,-2.0126,-2.0188,-2.0195,-2.0201,-2.0273,-2.0289,-2.0302,0,0,0,0,0,0,-2.0118,-2.01,-2.0076,-2.0134,-2.0136,-2.0123,-2.0156,-2.0126,-2.0139,-2.0131,-2.0095,-2.0094,-2.0144,-2.014,-2.0102,-2.0194,-2.0143,-2.0152,-2.0196,-2.0211,-2.0223,-2.0223,-2.0039,0,0,0,0,0,-2.0141,-2.0166,-2.0149,-2.0202,-2.0204,-2.018,-2.0191,-2.0169,-2.017,-2.0171,-2.0161,-2.0164,-2.0183,-2.0197,-2.0214,-2.0277,-2.0274,-2.0309,-2.0321,-2.0331,-2.0339,-2.0371,-2.0386,-2.0227,-2.0227,-2.0226,0,0,-2.0189,-2.0183,-2.0201,-2.0217,-2.0216,-2.0242,-2.0181,-2.0212,-2.0231,-2.0175,-2.0217,-2.021,-2.021,-2.0265,-2.0288,-2.0262,-2.0382,-2.034,-2.0348,-2.035,-2.038,-2.0395,-2.0409,-2.0231,-2.023,-2.023,0,0,-2.0291,-2.0289,-2.0332,-2.0332,-2.0332,-2.0316,-2.0326,-2.0317,-2.031,-2.0352,-2.031,-2.0332,-2.0367,-2.0369,-2.0374,-2.0476,-2.0443,-2.0483,-2.0546,-2.0579,-2.0591,-2.0602,-2.0638,-2.0652,-2.049,-2.049,-2.049,0,-2.0351,-2.0389,-2.0358,-2.0391,-2.0399,-2.035,-2.0393,-2.0395,-2.0401,-2.0407,-2.0378,-2.042,-2.0417,-2.0471,-2.0496,-2.0502,-2.0512,-2.0483,-2.0592,-2.0603,-2.0613,-2.0647,-2.066,-2.0495,-2.0495,-2.0494,-2.0494,0,-2.0463,-2.049,-2.0525,-2.0531,-2.0543,-2.0582,-2.0556,-2.0571,-2.0548,-2.0535,-2.0577,-2.0572,-2.0586,-2.0598,-2.0575,-2.0649,-2.0632,-2.0598,-2.0546,-2.0633,-2.0664,-2.0677,-2.0502,-2.05,-2.0499,-2.0498,0,0,-2.0611,-2.06,-2.0613,-2.0615,-2.0611,-2.0632,-2.0668,-2.0682,-2.0696,-2.0702,-2.0731,-2.0761,-2.0729,-2.0736,-2.0713,-2.0742,-2.0823,-2.0704,-2.0703,-2.0726,-2.0903,-2.0928,-2.0944,-2.0801,-2.0803,-2.0805,-2.0902,0,-2.0709,-2.077,-2.0742,-2.0806,-2.0831,-2.0784,-2.0816,-2.0817,-2.0805,-2.0824,-2.0811,-2.0833,-2.079,-2.0793,-2.082,-2.0807,-2.0858,-2.08,-2.0827,-2.0829,-2.0829,-2.096,-2.0987,-2.1079,-2.0915,-2.0917,-2.0918,0,-2.0831,-2.0842,-2.0908,-2.0899,-2.0908,-2.0937,-2.0948,-2.0967,-2.0967,-2.0957,-2.0964,-2.0935,-2.0969,-2.0918,-2.0965,-2.0926,-2.0936,-2.0931,-2.0934,-2.0935,-2.0878,-2.0964,-2.1107,-2.1121,-2.0937,-2.0936,-2.0934,0,-2.0932,-2.0963,-2.1006,-2.101,-2.1001,-2.1022,-2.1019,-2.1017,-2.1027,-2.1037,-2.1043,-2.1057,-2.1064,-2.1075,-2.1051,-2.1016,-2.1101,-2.1047,-2.1093,-2.1094,-2.1112,-2.1111,-2.1259,-2.112,-2.1119,-2.1119,-2.1119,0,-2.1044,-2.1086,-2.1051,-2.1078,-2.1124,-2.1092,-2.1138,-2.1131,-2.1129,-2.1153,-2.1114,-2.1138,-2.1103,-2.1124,-2.1105,-2.1146,-2.115,-2.1142,-2.1136,-2.1145,-2.1146,-2.1151,-2.1144,-2.1123,-2.1122,-2.1121,-2.1121,0,-2.1164,-2.1143,-2.1187,-2.1175,-2.1173,-2.1208,-2.1197,-2.1221,-2.1207,-2.1238,-2.1244,-2.1222,-2.1244,-2.122,-2.124,-2.1227,-2.1283,-2.1268,-2.1283,-2.1279,-2.1325,-2.1321,-2.148,-2.1499,-2.1349,-2.135,-2.1351,0,-2.1237,-2.1268,-2.126,-2.1273,-2.1273,-2.1295,-2.1306,-2.1276,-2.1288,-2.1291,-2.1315,-2.1333,-2.1346,-2.1383,-2.1369,-2.1384,-2.1369,-2.1423,-2.1371,-2.1379,-2.1369,-2.1367,-2.137,-2.1434,-2.1436,-2.1437,-2.1438,0,-2.1368,-2.1356,-2.1372,-2.1386,-2.1399,-2.1408,-2.1414,-2.1427,-2.1396,-2.1412,-2.1433,-2.1444,-2.1464,-2.1483,-2.1494,-2.1491,-2.146,-2.1455,-2.1466,-2.1476,-2.1483,-2.1479,-2.1312,-2.1452,-2.145,-2.1449,-2.1449,-2.1448,-2.1466,-2.1492,-2.149,-2.151,-2.1511,-2.1517,-2.1539,-2.1528,-2.1546,-2.156,-2.1541,-2.1568,-2.1567,-2.1579,-2.1579,-2.16,-2.1576,-2.1593,-2.1597,-2.1601,-2.1608,-2.148,-2.1602,-2.1601,-2.1601,-2.1601,-2.16,0,-2.1595,-2.1591,-2.161,-2.1619,-2.1635,-2.1604,-2.1609,-2.1624,-2.1648,-2.165,-2.1664,-2.1689,-2.1707,-2.1694,-2.1709,-2.1728,-2.1714,-2.1733,-2.1731,-2.1731,-2.1628,-2.1617,-2.1744,-2.1744,-2.1744,-2.1744,-2.1744,-2.1744,-2.1663,-2.1705,-2.1692,-2.1734,-2.173,-2.1756,-2.1762,-2.1767,-2.1769,-2.1798,-2.1813,-2.1805,-2.1801,-2.1815,-2.183,-2.1826,-2.1833,-2.1857,-2.1848,-2.1752,-2.1738,-2.1725,-2.1714,-2.1859,-2.1859,-2.1949,-2.195,-2.195]},{"header":{"parameterUnit":"m.s-1","parameterCategory":1,"la1":30.2991,"la2":30.254,"lo1":-89.0895,"lo2":-89.0444,"dy":0.0017,"dx":0.0017,"nx":28,"ny":28,"refTime":"2025-08-08T03:00:00:Z","depth":0,"parameterNumber":3,"parameterNumberName":"V-component_of_WINDS"},"data":[0,0,0,0,0,0,0,0,0,0,0,0,0,0,0,0,0,0,0,0,0,0,0,0,0,0,0,0,0,0,0,0,0,0,0,0,0,0,0,0,0,0,0,0,0,0,0,0,0,0,0,0,0,0,0,0,0,0,-1.8373,-1.8374,0,-1.8482,-1.8483,-1.8484,-1.8523,-1.8523,-1.8523,-1.8522,-1.8632,-1.8635,-1.8638,0,0,0,0,0,0,0,0,0,0,0,0,0,-1.8198,-1.8201,-1.8373,-1.8374,-1.8376,-1.8482,-1.8483,-1.8485,-1.8523,-1.8523,-1.8522,-1.8522,-1.8631,-1.8635,-1.8639,0,0,0,0,0,0,0,0,0,0,0,0,0,-1.8287,-1.8202,-1.8373,-1.8408,-1.8412,-1.8481,-1.8483,-1.8485,-1.8523,-1.8523,-1.8522,-1.8522,-1.863,-1.8634,-1.8639,-1.8681,0,0,-1.8654,-1.8656,0,0,0,0,0,0,0,0,-1.8282,-1.8293,-1.8401,-1.8406,-1.841,-1.8489,-1.8462,-1.8551,-1.8524,-1.8481,-1.8522,-1.8521,-1.8585,-1.8593,-1.8615,-1.8686,-1.8691,-1.8655,-1.8658,-1.866,-1.8661,0,0,0,0,0,0,0,-1.8276,-1.8289,-1.8416,-1.8403,-1.8408,-1.8418,-1.843,-1.8479,-1.8535,-1.8485,-1.8488,-1.85,-1.8587,-1.861,-1.8618,-1.8693,-1.8655,-1.8659,-1.8662,-1.8664,-1.8804,-1.8805,0,0,0,0,0,0,-1.8264,-1.8283,-1.8413,-1.8419,-1.8343,-1.8421,-1.8435,-1.8464,-1.8534,-1.8544,-1.8501,-1.8502,-1.8602,-1.8612,-1.8622,-1.8675,-1.866,-1.8664,-1.8667,-1.8803,-1.8804,-1.8805,0,0,0,0,0,0,-1.826,-1.8275,-1.8408,-1.8352,-1.837,-1.8425,-1.8457,-1.8466,-1.849,-1.8546,-1.8556,-1.8514,-1.8602,-1.8615,-1.8666,-1.868,-1.8667,-1.8671,-1.8802,-1.8804,-1.8805,-1.8783,0,0,0,0,0,0,-1.8255,-1.8273,-1.829,-1.8352,-1.8373,-1.8451,-1.8458,-1.8469,-1.8498,-1.85,-1.8561,-1.8571,-1.8602,-1.8659,-1.8671,-1.8686,-1.8675,-1.8802,-1.8803,-1.8804,-1.8782,-1.8783,-1.8783,0,0,0,0,0,-1.8248,-1.8279,-1.8291,-1.8306,-1.8395,-1.8452,-1.8464,-1.8499,-1.8499,-1.8516,-1.8553,-1.8569,-1.8676,-1.8664,-1.8678,-1.8695,-1.8801,-1.8803,-1.8804,-1.8782,-1.8783,-1.8783,0,0,0,0,0,0,-1.8216,-1.8288,-1.8301,-1.8353,-1.8396,-1.8458,-1.8481,-1.8499,-1.8542,-1.8543,-1.8585,-1.8598,-1.8646,-1.8676,-1.866,-1.8739,-1.874,-1.8744,-1.8718,-1.8719,-1.8719,-1.8711,-1.8679,0,0,0,0,0,-1.8215,-1.8256,-1.8316,-1.8356,-1.8377,-1.8425,-1.8451,-1.8475,-1.8521,-1.854,-1.858,-1.8623,-1.8667,-1.8695,-1.8738,-1.8787,-1.8801,-1.8806,-1.8806,-1.8806,-1.881,-1.8838,-1.8841,-1.8811,-1.8811,-1.8811,0,0,-1.8213,-1.8258,-1.8281,-1.8351,-1.8387,-1.8428,-1.844,-1.8483,-1.8513,-1.8546,-1.8597,-1.8628,-1.868,-1.873,-1.8754,-1.8756,-1.8821,-1.8809,-1.8808,-1.8812,-1.884,-1.8843,-1.8845,-1.8812,-1.8812,-1.8812,0,0,-1.8231,-1.8269,-1.8306,-1.8342,-1.8397,-1.8429,-1.8438,-1.8498,-1.852,-1.8572,-1.8597,-1.8634,-1.8708,-1.8744,-1.8771,-1.8803,-1.882,-1.8816,-1.8818,-1.8845,-1.8847,-1.885,-1.8861,-1.8864,-1.8819,-1.8819,-1.8819,0,-1.8221,-1.8284,-1.8323,-1.8364,-1.8394,-1.8427,-1.8465,-1.8498,-1.8563,-1.8583,-1.8585,-1.8679,-1.8716,-1.8775,-1.8783,-1.8804,-1.8815,-1.8809,-1.8844,-1.8847,-1.8849,-1.886,-1.8864,-1.8819,-1.8819,-1.8819,-1.8819,0,-1.827,-1.8313,-1.8337,-1.84,-1.8433,-1.8472,-1.8517,-1.8545,-1.8567,-1.8598,-1.8651,-1.8697,-1.875,-1.8766,-1.8787,-1.8828,-1.8828,-1.8836,-1.8837,-1.8851,-1.8862,-1.8866,-1.8817,-1.8818,-1.8818,-1.8818,0,0,-1.8269,-1.8354,-1.8362,-1.8391,-1.8454,-1.8488,-1.8529,-1.8582,-1.8605,-1.865,-1.8685,-1.8747,-1.8756,-1.8787,-1.8813,-1.8836,-1.8858,-1.8842,-1.8844,-1.8843,-1.8906,-1.8899,-1.8903,-1.887,-1.8871,-1.8872,-1.8902,0,-1.8294,-1.8369,-1.8406,-1.8465,-1.8505,-1.8536,-1.8572,-1.8614,-1.8645,-1.8684,-1.8718,-1.8761,-1.8769,-1.8788,-1.8813,-1.885,-1.8871,-1.8849,-1.8902,-1.8904,-1.8888,-1.8909,-1.8901,-1.8927,-1.8906,-1.8907,-1.8907,0,-1.8334,-1.8379,-1.8442,-1.85,-1.8518,-1.855,-1.8601,-1.8638,-1.8686,-1.8707,-1.8743,-1.8768,-1.8812,-1.881,-1.8871,-1.8855,-1.888,-1.8901,-1.8903,-1.8909,-1.8906,-1.8914,-1.8936,-1.894,-1.8915,-1.8914,-1.8914,0,-1.8326,-1.8402,-1.845,-1.8474,-1.8544,-1.8565,-1.8595,-1.8643,-1.8673,-1.8717,-1.8737,-1.8786,-1.8812,-1.885,-1.8887,-1.8883,-1.8944,-1.8946,-1.8962,-1.8961,-1.8973,-1.8972,-1.8999,-1.899,-1.899,-1.899,-1.899,0,-1.835,-1.8387,-1.8448,-1.8477,-1.8519,-1.8561,-1.8602,-1.8634,-1.8677,-1.8712,-1.8743,-1.8776,-1.8823,-1.8862,-1.8892,-1.8938,-1.895,-1.8967,-1.8975,-1.8964,-1.8962,-1.898,-1.8979,-1.8991,-1.8991,-1.899,-1.899,0,-1.8349,-1.8391,-1.8444,-1.8506,-1.8523,-1.8551,-1.8604,-1.8633,-1.8666,-1.8711,-1.8724,-1.8775,-1.8822,-1.8864,-1.8926,-1.8946,-1.8993,-1.9002,-1.8977,-1.898,-1.8994,-1.8992,-1.9033,-1.904,-1.9027,-1.9027,-1.9027,0,-1.8361,-1.839,-1.8455,-1.8482,-1.8511,-1.8553,-1.8584,-1.8626,-1.8656,-1.8714,-1.8736,-1.8786,-1.8828,-1.8902,-1.8944,-1.8992,-1.9003,-1.9014,-1.901,-1.8999,-1.9002,-1.9,-1.9003,-1.9013,-1.9013,-1.9013,-1.9013,0,-1.8378,-1.8397,-1.844,-1.849,-1.8525,-1.8567,-1.8609,-1.8629,-1.8678,-1.8711,-1.876,-1.8792,-1.8857,-1.8905,-1.8958,-1.8989,-1.9009,-1.9014,-1.902,-1.901,-1.8993,-1.9002,-1.8976,-1.9013,-1.9013,-1.9013,-1.9013,-1.9013,-1.8383,-1.8411,-1.8461,-1.8508,-1.8544,-1.8583,-1.8613,-1.865,-1.8692,-1.8748,-1.877,-1.882,-1.8868,-1.8941,-1.8972,-1.9011,-1.9015,-1.9024,-1.9026,-1.9027,-1.9025,-1.8988,-1.9021,-1.9021,-1.9021,-1.9021,-1.9021,0,-1.8401,-1.8436,-1.8478,-1.8536,-1.8573,-1.859,-1.8637,-1.8667,-1.871,-1.8754,-1.8795,-1.8851,-1.8899,-1.8945,-1.8995,-1.9018,-1.9029,-1.903,-1.9028,-1.9035,-1.902,-1.9009,-1.902,-1.902,-1.902,-1.902,-1.902,-1.902,-1.8415,-1.8463,-1.8488,-1.8554,-1.8588,-1.8637,-1.8663,-1.8699,-1.8734,-1.8796,-1.8835,-1.8866,-1.8911,-1.8964,-1.9009,-1.9021,-1.9038,-1.9036,-1.9051,-1.9036,-1.9036,-1.9035,-1.9026,-1.904,-1.904,-1.9063,-1.9063,-1.9063]}]]